Regional Weather Roundup
Issued by NWS

Home | Current Version | Previous Version | Graphics & Text | Print | Product List | Glossary Off
Versions: 1 2 3 4 5 6 7 8 9 10 11 12 13 14 15 16 17 18 19 20 21 22 23 24 25 26 27 28 29 30 31 32 33 34 35 36 37 38 39 40 41 42 43 44 45 46 47 48 49 50

000
ASUS43 KMKX 300410
RWRWI

WISCONSIN REGIONAL WEATHER ROUNDUP
NATIONAL WEATHER SERVICE MILWAUKEE/SULLIVAN WI
1000 PM CST THU JAN 29 2015

NOTE: "FAIR" INDICATES FEW OR NO CLOUDS BELOW 12,000 FEET WITH NO
SIGNIFICANT WEATHER AND/OR OBSTRUCTIONS TO VISIBILITY.

WIZ001-002-006>008-014>016-023>028-300500-
NORTHWEST WISCONSIN

CITY           SKY/WX    TMP DP  RH WIND       PRES   REMARKS
SUPERIOR ARPT  CLEAR      8   1  72 NW7       30.52R WCI  -3
ASHLAND        CLOUDY    15   4  61 NW8       30.46R WCI   4
HAYWARD        CLOUDY    12   3  67 NW6       30.44R WCI   3
SIREN          CLEAR     11   3  68 N5        30.49S WCI   3
CUMBERLAND     MOCLDY    12   3  67 N6        30.44R WCI   3
RICE LAKE      CLEAR     13   3  65 NW10G17   30.47R WCI   0
CHETEK         CLEAR     12   4  70 MISG      30.46R
LADYSMITH      CLOUDY    16   7  68 NW9       30.42R WCI   4
EAU CLAIRE     PTCLDY    16   5  62 N6        30.45R WCI   7
MENOMONIE      CLEAR     17   8  67 NW14      30.47R WCI   3
NEW RICHMOND   CLEAR     13   6  72 N9        30.49R WCI   1
OSCEOLA        CLEAR     15   7  71 NW7       30.52R WCI   5
$$

WIZ003>005-009-010-017-018-300500-
NORTH CENTRAL WISCONSIN

CITY           SKY/WX    TMP DP  RH WIND       PRES   REMARKS
MANITOWISH WTR FLURRIES  14   8  76 N8        30.33R WCI   3
ARBOR VITAE    LGT SNOW  17  10  75 N16G24    30.32R WCI   1
WOODRUFF       LGT SNOW  17  10  75 N16G24    30.32R WCI   1
RHINELANDER    CLOUDY    16   6  65 N12G20    30.31R WCI   3
EAGLE RIVER    CLOUDY    15   6  68 N15       30.29R WCI   0
LAND O LAKES   LGT SNOW  15   7  72 N16G26    30.30R WCI  -1
PHILLIPS       CLOUDY    14   7  73 NW9       30.35R WCI   2
TOMAHAWK       CLOUDY    16   8  71 NW10G17   30.33R WCI   3
MEDFORD        CLOUDY    17   7  65 NW14G22   30.34R WCI   3
MERRILL        FLURRIES  18  11  73 N13G18    30.33R WCI   5
$$

WIZ029-030-035-036-043>047-300500-
CENTRAL WISCONSIN

CITY           SKY/WX    TMP DP  RH WIND       PRES   REMARKS
WAUSAU         CLOUDY    20   7  57 N13G18    30.32R WCI   7
MOSINEE        CLOUDY    19  16  86 NW13      30.34R WCI   7
MARSHFIELD     CLOUDY    20   9  62 NW17      30.35R WCI   5
STEVENS POINT  CLOUDY    20  10  65 N14G25    30.34R WCI   7
WAUPACA        CLOUDY    26  10  50 NW16G23   30.33R WCI  14
WAUTOMA        CLOUDY    25  17  71 N8        30.34R WCI  16
WISC RAPIDS    CLOUDY    22  10  60 NW14G23   30.36R WCI   9
CAMP DOUGLAS   CLOUDY    23  14  68 N22G28    30.37R WCI   8
$$

WIZ011>013-019>022-031-037>040-048>050-300500-
NORTHEAST WISCONSIN

CITY           SKY/WX    TMP DP  RH WIND       PRES   REMARKS
ANTIGO         LGT SNOW  17  10  76 N15       30.29R WCI   2
SHAWANO        CLOUDY    25  15  66 N7        30.33R WCI  17
OCONTO         CLOUDY    22  10  61 MISG      30.32R
STURGEON BAY   PTCLDY    18   7  62 N20G26    30.31R WCI   1
GREEN BAY      CLOUDY    23  12  62 N12G20    30.31R WCI  12
MANITOWOC      FLURRIES  24  14  65 N20G26    30.29R WCI  10
APPLETON       CLOUDY    23  10  58 N13G21    30.31R WCI  11
CLINTONVILLE   LGT SNOW  23  16  74 N14G22    30.33R WCI  11
OSHKOSH        CLOUDY    24  11  57 N13       30.31R WCI  12
$$

WIZ032>034-041-042-053>061-300500-
SOUTHWEST WISCONSIN

CITY           SKY/WX    TMP DP  RH WIND       PRES   REMARKS
LA CROSSE      PTCLDY    23  10  57 N18       30.43R WCI   9
SPARTA         CLOUDY    23  11  60 NW13      30.41R WCI  11
VIROQUA        CLOUDY    22  13  66 N15G21    30.36R WCI   9
BOSCOBEL       PTCLDY    28  12  51 N13       30.39R WCI  17
PRAIRIE DU CHI MOCLDY    27  14  56 N15G22    30.41R WCI  16
PLATTEVILLE    MOCLDY    27  15  59 NW23G29   30.35R WCI  13
$$

WIZ056-057-062-063-064-067-068-300500-
SOUTH CENTRAL WISCONSIN

CITY           SKY/WX    TMP DP  RH WIND       PRES   REMARKS
REEDSBURG      CLOUDY    26  16  67 NW16      30.34R WCI  13
BARABOO/DELLS  CLOUDY    26  14  60 N14       30.33R WCI  15
LONE ROCK      CLOUDY    27  13  55 N16G24    30.36R WCI  15
MINERAL POINT  CLOUDY    30  18  59 NW9       30.33R WCI  22
MADISON        CLOUDY    28  14  55 N15G25    30.31R WCI  16
MIDDLETON      CLOUDY    30  18  62 N15       30.32R WCI  19
WATERTOWN      FLURRIES  26  21  82 N9        30.30R WCI  17
MONROE         CLOUDY    28  18  64 NW13G21   30.30R WCI  18
JANESVILLE     CLOUDY    32  19  59 N15       30.30R WCI  22
$$

WIZ051-052-058>065-066-070>072-300500-
SOUTHEAST WISCONSIN

CITY           SKY/WX    TMP DP  RH WIND       PRES   REMARKS
MILWAUKEE      MOCLDY    30  13  49 N17G25    30.27R WCI  18
WAUKESHA       CLOUDY    27  14  59 N18G24    30.29R WCI  13
MILWAUKEE/TIMM CLOUDY    28  12  50 N14G20    30.29R WCI  17
RACINE         CLOUDY    30  16  56 N14G24    30.28R WCI  19
BURLINGTON     LGT SNOW  27  23  86 N12       30.28R WCI  16
KENOSHA        CLOUDY    30  19  63 N14G25    30.26R WCI  19
FOND DU LAC    CLOUDY    25  11  55 N15       30.32R WCI  13
SHEBOYGAN      CLOUDY    24  12  60 NW17G24   30.29R WCI  11
WEST BEND      CLOUDY    27  10  50 N15G23    30.28R WCI  15
JUNEAU         CLOUDY    25  14  63 N14G20    30.31R WCI  13
$$

LSZ147-162-300500-
LAKE SUPERIOR

STATION/POSITION TIME  TEMP    WIND        PRES    WAVE
                       AIR SEA DIR/SP/G            HT/PER
                 (UTC) (F)     (DEG/KT/KT) (MB)    (FT/S)
DEVILS ISLAND    0400   15     330/ 20/ 22 1033.2R
PORT WING        0340   17     320/ 12/ 20 1031.8R
SAXON HARBOR     0300   20     340/ 16/ 22 1030.1R
$$

LMZ867-665-643>646-300500-
LAKE MICHIGAN

STATION/POSITION TIME  TEMP    WIND        PRES    WAVE
                       AIR SEA DIR/SP/G            HT/PER
                 (UTC) (F)     (DEG/KT/KT) (MB)    (FT/S)
NORTHPORT PIER   0306   20     330/ 25     1024.7R
SISTER BAY       0213   19      20/ 25/ 32   N/A
KEWAUNEE LAKESHO 0300   22     340/ 12/ 19 1024.3R
SHEBOYGAN LAKESH 0400   25     350/ 23/ 27 1027.1R
PORT WASHINGTON  0340   27     340/  7/ 12 1026.4R
MILWAUKEE LAKESH 0300   31     340/ 15/ 19   N/A
KENOSHA   LAKESH 0400   31     330/ 19/ 24 1024.7R
$$

TC  - TEMPERATURE IN CELSIUS
VSB - VISIBILITY IN STATUTE MILES
WCI - WIND CHILL INDEX
HX  - HEAT INDEX




USA.gov is the U.S. government's official web portal to all federal, state and local government web resources and services.